Wilmington, OH

9:10 PM EST on December 08, 2016 (GMT -0500)
Airborne

Weather History for KILN - November, 2012

Change the Weather History Date:

Sunday, November 25, 2012

  Actual Average (KFFO) Record (KFFO)
Temperature  
Mean Temperature 34 °F -  
Max Temperature 43 °F 47 °F 65 °F (2006)
Min Temperature 24 °F 31 °F 12 °F (2005)
Degree Days  
Heating Degree Days 32    
Moisture  
Dew Point 23 °F    
Average Humidity 64    
Maximum Humidity 81    
Minimum Humidity 45    
Precipitation  
Precipitation 0.00 in - - ()
Sea Level Pressure  
Sea Level Pressure 30.05 in    
Wind  
Wind Speed 8 mph (SW)    
Max Wind Speed 18 mph    
Max Gust Speed 25 mph    
Visibility 10 miles    
Events      
Averages and records for this station are not official NWS values.
T = Trace of Precipitation, MM = Missing Value Source: NWS Daily Summary

Daily Weather History Graph

Daily Weather History Graph

Search for Another Location

Airport or City:

Trip Planner

Search our weather history database for the weather conditions in past years. The results will help you decide how hot, cold, wet, or windy it might be!

Date:

Astronomy

Nov. 25, 2012 Rise Set
Actual Time 7:30 AM EST 5:13 PM EST
Civil Twilight 7:01 AM EST 5:43 PM EST
Nautical Twilight 6:28 AM EST 6:16 PM EST
Astronomical Twilight 5:56 AM EST 6:48 PM EST
Moon 3:29 PM EST (11/25) 4:44 AM EST (11/25)
Length of Visible Light 10h 42m
Length of Day
9h 43m
Waxing Gibbous, 93% of the Moon is Illuminated
Nov 25
Waxing Gibbous
Nov 28
Full
Dec 6
Last Quarter
Dec 13
New
Dec 20
First Quarter

Hourly Weather History & Observations

Time (EST) Temp. Windchill Dew Point Humidity Pressure Visibility Wind Dir Wind Speed Gust Speed Precip Events Conditions
12:54 AM 24.1 °F 19.7 °F 18.0 °F 77% 30.17 in 10.0 mi SSW 3.5 mph - N/A   Clear
1:54 AM 26.1 °F 20.5 °F 21.0 °F 81% 30.15 in 9.0 mi SSW 4.6 mph - N/A   Overcast
2:54 AM 27.0 °F 21.6 °F 21.0 °F 78% 30.15 in 10.0 mi SSW 4.6 mph - N/A   Scattered Clouds
3:54 AM 27.0 °F 18.7 °F 19.9 °F 75% 30.13 in 10.0 mi SSW 8.1 mph - N/A   Clear
4:54 AM 26.1 °F 18.4 °F 19.9 °F 78% 30.12 in 10.0 mi SSW 6.9 mph - N/A   Clear
5:54 AM 27.0 °F 18.0 °F 21.0 °F 78% 30.11 in 10.0 mi SSW 9.2 mph - N/A   Mostly Cloudy
6:54 AM 27.0 °F 16.7 °F 21.0 °F 78% 30.10 in 10.0 mi SSW 11.5 mph - N/A   Clear
7:54 AM 28.9 °F 19.2 °F 21.0 °F 72% 30.07 in 10.0 mi SSW 11.5 mph - N/A   Scattered Clouds
8:54 AM 30.0 °F 17.9 °F 21.0 °F 69% 30.05 in 10.0 mi SSW 18.4 mph 23.0 mph N/A   Overcast
9:54 AM 30.9 °F 21.2 °F 21.9 °F 69% 30.04 in 10.0 mi SSW 12.7 mph 21.9 mph N/A   Partly Cloudy
10:54 AM 34.0 °F 24.2 °F 21.9 °F 61% 30.03 in 10.0 mi SW 15.0 mph - N/A   Clear
11:54 AM 39.0 °F 29.9 °F 23.0 °F 53% 30.00 in 10.0 mi SW 17.3 mph 25.3 mph N/A   Clear
12:54 PM 41.0 °F 32.8 °F 23.0 °F 49% 29.97 in 10.0 mi SW 16.1 mph - N/A   Clear
1:54 PM 43.0 °F 34.8 °F 23.0 °F 45% 29.96 in 10.0 mi SW 18.4 mph - N/A   Clear
2:54 PM 42.1 °F 34.5 °F 23.0 °F 47% 29.96 in 10.0 mi WSW 15.0 mph - N/A   Clear
3:54 PM 43.0 °F 36.8 °F 25.0 °F 49% 29.96 in 10.0 mi SW 11.5 mph - N/A   Clear
4:54 PM 42.1 °F 37.1 °F 25.0 °F 51% 29.98 in 10.0 mi SW 8.1 mph - N/A   Overcast
5:54 PM 36.0 °F 31.1 °F 25.0 °F 64% 30.00 in 10.0 mi SSW 5.8 mph - N/A   Clear
6:54 PM 37.0 °F - 26.1 °F 65% 30.02 in 10.0 mi Calm Calm - N/A   Clear
7:54 PM 37.0 °F 34.5 °F 26.1 °F 65% 30.03 in 10.0 mi SSW 3.5 mph - N/A   Clear
8:54 PM 37.0 °F 34.5 °F 26.1 °F 65% 30.04 in 10.0 mi SW 3.5 mph - N/A   Partly Cloudy
9:54 PM 39.0 °F 35.7 °F 26.1 °F 60% 30.05 in 10.0 mi WSW 4.6 mph - N/A   Partly Cloudy
10:54 PM 39.9 °F 35.1 °F 25.0 °F 55% 30.06 in 10.0 mi NW 6.9 mph - N/A   Mostly Cloudy
11:54 PM 41.0 °F 36.4 °F 26.1 °F 55% 30.07 in 10.0 mi NW 6.9 mph - N/A   Mostly Cloudy